Погода в Верхней Максаковке

Россия / Республика Коми     61°37′59″N   50°58′01″E
темп.,
°C
ветер,
м/с
пор.,
м/с
влажн.,
%
обл.,
%
осадки,
мм/ч
давл.,
гПа
погр.,
м
26 июля, пн
пн2600:00+13зюз3867100 0.0 1014279
03:00+13зюз387197 0.0 1014358
06:00+13з388320 0.2 1015397
09:00+17з58618 0.5 10131482
12:00+19з475079 0.6 10121721
15:00+13ссз2593100 1.9 1012339
18:00+12ссз389663 2.1 1012598
21:00+10сз38978 2.2 1013447
27 июля, вт
вт2700:00+8зсз389818 0.0 1013259
03:00+6зсз310954 0.0 1014323
06:00+8зсз41088100 0.0 1014516
09:00+9зсз4882100 0.0 10151021
12:00+13зсз5863100 0.1 10141472
15:00+16сз594573 0.1 10132210
18:00+14сз5125372 0.0 10131697
21:00+10ссз4126669 0.0 10141376
28 июля, ср
ср2800:00+7сз388080 0.0 1014590
03:00+8сз377984 0.0 1014641
06:00+8сз3678100 0.0 1014835
09:00+11сз255999 0.1 10131135
12:00+16зсз4644100 0.0 10111699
15:00+18зсз4837100 0.0 10092179
18:00+14ссв1156100 0.0 100816
21:00+10всв128721 0.2 100789
29 июля, чт
чт2900:00+9с119149 0.1 100754
03:00+9ссв139431 0.1 1006102
06:00+10св228850 0.0 1006274
09:00+15всв126074 0.0 1005895
12:00+17ссв224947 0.0 10051355
15:00+19с2343100 0.0 10041743
18:00+17св335164 0.0 1004600
21:00+12в3865100 0.0 1004270
30 июля, пт
пт3000:00+11вюв3769100 0.0 1004247
03:00+10вюв3772100 0.0 1003256
06:00+10вюв4984100 0.4 1002354
09:00+9вюв4998100 4.0 1001374
12:00+9в3799100 3.0 1000299
15:00+10в3599100 5.3 999218
18:00+12всв1298100 2.3 999173
21:00+11юв1110099 2.6 100059